Location: ??????
(55.8274°N, 37.9338°E)
Time: 04:28:02
(UTC+00:00)

Cosmos 1743 - Visible Passes

Search period start: 25 July 2024 00:00
Search period end: 04 August 2024 00:00
Orbit: 473 x 485 km, 82.5° (Epoch: 24 July)

Date Brightness Start Highest point End Pass type
(mag) Time Alt. Az. Time Alt. Az. Time Alt. Az.
25 Jul 5.3 21:32:55 10° E 21:33:29 10° E 21:34:04 10° ENE visible
25 Jul 2.6 23:05:18 20° S 23:07:45 83° E 23:11:28 10° NNE visible
26 Jul 3.1 22:39:08 21° SSE 22:41:19 53° E 22:44:54 10° NNE visible
27 Jul 4.5 00:13:53 10° WSW 00:16:35 19° WNW 00:19:18 10° NNW visible
27 Jul 3.7 22:12:56 20° SE 22:14:53 34° E 22:18:15 10° NNE visible
27 Jul 4.0 23:47:11 12° WSW 23:49:54 27° WNW 23:53:06 10° N visible
28 Jul 4.3 21:46:42 16° SE 21:48:29 23° E 21:51:27 10° NE visible
28 Jul 3.4 23:20:57 18° SW 23:23:16 39° WNW 23:26:45 10° N visible
29 Jul 4.8 21:20:26 12° ESE 21:22:07 16° E 21:24:24 10° NE visible
29 Jul 2.8 22:54:41 25° SSW 22:56:38 60° WNW 23:00:18 10° N visible
30 Jul 5.1 20:54:52 10° E 20:55:45 11° E 20:56:38 10° ENE visible
30 Jul 2.5 22:28:23 31° S 22:30:02 87° E 22:33:44 10° NNE visible
31 Jul 5.0 00:03:44 10° W 00:05:34 13° WNW 00:07:26 10° NNW visible
31 Jul 2.9 22:02:02 32° SSE 22:03:28 55° E 22:07:05 10° NNE visible
31 Jul 4.6 23:36:17 11° WSW 23:38:45 18° WNW 23:41:24 10° NNW visible
01 Aug 3.6 21:35:40 27° SE 21:36:55 35° E 21:40:18 10° NNE visible
01 Aug 4.1 23:09:54 16° WSW 23:11:56 26° WNW 23:15:06 10° N visible
02 Aug 4.2 21:09:15 20° ESE 21:10:23 24° E 21:13:22 10° NE visible
02 Aug 3.5 22:43:30 24° WSW 22:45:10 38° WNW 22:48:38 10° N visible
03 Aug 4.6 20:42:49 15° ESE 20:43:52 16° E 20:46:12 10° NE visible
03 Aug 2.8 22:17:03 34° SW 22:18:25 58° WNW 22:22:03 10° N visible
